Location: Battersea Observatory
(44.4318°N, 76.3841°W)
Time: 09:40:36
(UTC-04:00)

Vanguard 2 - Pass Details

Date: 24 January 2022
Orbit: 552 x 2935 km, 32.9° (Epoch: 26 May)

Event Time Altitude Azimuth Distance (km) Brightness Sun altitude
Rises 04:12:22 0° 272° (W) 6,518 - -35.5°
Reaches altitude 10° 04:19:24 10° 254° (WSW) 5,710 - -34.2°
Maximum altitude 04:27:47 15° 225° (SW) 5,285 - -32.7°
Exits shadow 04:31:06 15° 213° (SSW) 5,314 11.4 -32.1°
Drops below altitude 10° 04:36:02 10° 196° (SSW) 5,565 11.7 -31.3°
Sets 04:42:52 0° 177° (S) 6,261 12.2 -30.0°
